Date String (YYYY-MM-DD hh:mm:ss) UTC,Instrument flags,Ambient pressure (hPa),Sample flow (lpm),Bypass flow (lpm),Sample temperature (°C),Ambient temperature (°C),ASC tube jacket temperature (°C),LED temperature (°C),Box temperature (°C),Sample RH (%),Span deviation,Mass concentration (μg/m³),Mass concentration (μg/m³),Mass concentration (μg/m³)
DateTimeUTC,F1_M11,P_M11,Q1_M11,Q2_M11,T1_M11,T2_M11,T3_M11,T4_M11,T5_M11,U1_M11,ZSPAN_M11,X0_M11,X2_M11,X1_M11
2023-04-29 16:00:00,,0833.4,4.98,0.00,25.4,24.2,00.0,33.6,27.0,15.7,0000.0,0012.05,0004.84,0002.98
2023-04-29 16:01:00,,0833.4,5.00,0.00,25.4,24.2,00.0,33.6,27.0,15.3,0000.0,0012.18,0004.89,0003.03
2023-04-29 16:02:00,,0833.4,5.01,0.00,25.4,24.2,00.0,33.7,27.0,15.4,0000.0,0012.58,0004.94,0003.07
2023-04-29 16:03:00,,0833.5,5.01,0.00,25.5,24.2,00.0,33.7,27.1,14.8,0000.0,0012.82,0004.96,0003.06
2023-04-29 16:04:00,,0833.4,5.00,0.00,25.5,24.2,00.0,33.7,27.1,14.8,0000.0,0012.79,0004.95,0003.02
2023-04-29 16:05:00,,0833.4,4.99,0.00,25.5,24.3,00.0,33.7,27.1,15.0,0000.0,0012.55,0004.88,0002.98
2023-04-29 16:06:00,,0833.4,5.00,0.00,25.5,24.3,00.0,33.7,27.1,14.0,0000.0,0012.52,0004.80,0002.91
2023-04-29 16:07:00,,0833.4,5.01,0.00,25.5,24.3,00.0,33.7,27.1,13.7,0000.0,0012.74,0004.83,0002.83
2023-04-29 16:08:00,,0833.5,5.00,0.00,25.5,24.3,00.0,33.7,27.1,14.3,0000.0,0012.90,0004.79,0002.75
2023-04-29 16:09:00,,0833.5,4.99,0.00,25.5,24.3,00.0,33.7,27.1,14.4,0000.0,0012.79,0004.73,0002.70
2023-04-29 16:10:00,,0833.5,5.00,0.00,25.5,24.3,00.0,33.8,27.1,14.5,0000.0,0012.59,0004.68,0002.66
2023-04-29 16:11:00,,0833.5,5.01,0.00,25.5,24.3,00.0,33.8,27.1,14.5,0000.0,0012.06,0004.69,0002.62
2023-04-29 16:12:00,,0833.6,5.01,0.00,25.5,24.3,00.0,33.8,27.1,14.4,0000.0,0011.97,0004.65,0002.56
2023-04-29 16:13:00,,0833.5,4.99,0.00,25.6,24.3,00.0,33.8,27.2,14.3,0000.0,0011.88,0004.56,0002.49
2023-04-29 16:14:00,,0833.4,5.00,0.00,25.6,24.4,00.0,33.8,27.1,14.7,0000.0,0011.67,0004.52,0002.45
2023-04-29 16:15:00,,0833.4,5.02,0.00,25.6,24.4,00.0,33.8,27.2,14.6,0000.0,0012.07,0004.55,0002.45
2023-04-29 16:16:00,,0833.4,4.99,0.00,25.6,24.4,00.0,33.8,27.2,14.4,0000.0,0012.25,0004.58,0002.44
2023-04-29 16:17:00,,0833.4,4.99,0.00,25.6,24.4,00.0,33.9,27.2,14.1,0000.0,0012.27,0004.57,0002.43
2023-04-29 16:18:00,,0833.4,5.00,0.00,25.7,24.5,00.0,33.9,27.3,14.2,0000.0,0012.24,0004.56,0002.43
2023-04-29 16:19:00,,0833.4,5.00,0.00,25.7,24.5,00.0,33.9,27.3,13.9,0000.0,0012.16,0004.61,0002.43
2023-04-29 16:20:00,,0833.4,5.00,0.00,25.7,24.5,00.0,33.9,27.3,14.0,0000.0,0012.14,0004.58,0002.39
2023-04-29 16:21:00,,0833.4,5.00,0.00,25.7,24.6,00.0,33.9,27.3,14.3,0000.0,0012.20,0004.59,0002.36
2023-04-29 16:22:00,,0833.4,4.99,0.00,25.7,24.6,00.0,33.9,27.3,14.6,0000.0,0012.26,0004.59,0002.32
2023-04-29 16:23:00,,0833.4,5.01,0.00,25.8,24.6,00.0,34.0,27.3,14.4,0000.0,0012.74,0004.58,0002.30
2023-04-29 16:24:00,,0833.4,5.01,0.00,25.8,24.6,00.0,34.0,27.4,14.5,0000.0,0012.78,0004.59,0002.27
2023-04-29 16:25:00,,0833.4,4.99,0.00,25.8,24.6,00.0,34.0,27.4,14.3,0000.0,0012.62,0004.64,0002.27
2023-04-29 16:26:00,,0833.4,4.99,0.00,25.8,24.6,00.0,34.0,27.4,14.5,0000.0,0011.93,0004.66,0002.28
2023-04-29 16:27:00,,0833.4,5.00,0.00,25.8,24.7,00.0,34.0,27.4,14.1,0000.0,0011.66,0004.66,0002.26
2023-04-29 16:28:00,,0833.4,5.01,0.00,25.8,24.7,00.0,34.0,27.4,13.7,0000.0,0011.90,0004.64,0002.27
2023-04-29 16:29:00,,0833.4,4.99,0.00,25.9,24.7,00.0,34.0,27.5,14.1,0000.0,0012.24,0004.63,0002.25
2023-04-29 16:30:00,,0833.4,4.99,0.00,25.9,24.7,00.0,34.1,27.5,14.0,0000.0,0012.14,0004.56,0002.23
2023-04-29 16:31:00,,0833.4,5.00,0.00,25.9,24.7,00.0,34.1,27.5,13.0,0000.0,0012.81,0004.61,0002.23
2023-04-29 16:32:00,,0833.4,5.01,0.00,25.9,24.8,00.0,34.1,27.5,13.3,0000.0,0012.96,0004.64,0002.22
2023-04-29 16:33:00,,0833.4,5.00,0.00,25.9,24.8,00.0,34.1,27.5,13.3,0000.0,0012.95,0004.63,0002.21
2023-04-29 16:34:00,,0833.4,5.00,0.00,26.0,24.8,00.0,34.1,27.5,13.6,0000.0,0012.58,0004.59,0002.19
2023-04-29 16:35:00,,0833.4,4.99,0.00,26.0,24.8,00.0,34.2,27.5,13.6,0000.0,0012.27,0004.67,0002.20
2023-04-29 16:36:00,,0833.4,4.99,0.00,26.0,24.8,00.0,34.2,27.6,13.5,0000.0,0012.94,0004.64,0002.19
2023-04-29 16:37:00,,0833.4,5.00,0.00,26.0,24.8,00.0,34.2,27.6,12.2,0000.0,0013.05,0004.63,0002.16
2023-04-29 16:38:00,,0833.4,5.01,0.00,26.0,24.9,00.0,34.2,27.6,11.9,0000.0,0013.08,0004.64,0002.14
2023-04-29 16:39:00,,0833.3,5.00,0.00,26.0,24.9,00.0,34.2,27.6,12.0,0000.0,0013.08,0004.65,0002.12
2023-04-29 16:40:00,,0833.3,5.00,0.00,26.1,24.9,00.0,34.2,27.6,12.7,0000.0,0012.48,0004.64,0002.09
2023-04-29 16:41:00,,0833.3,4.99,0.00,26.1,24.9,00.0,34.3,27.6,13.2,0000.0,0012.70,0004.71,0002.10
2023-04-29 16:42:00,,0833.3,4.99,0.00,26.1,24.9,00.0,34.3,27.7,13.3,0000.0,0011.94,0004.67,0002.11
2023-04-29 16:43:00,,0833.2,5.00,0.00,26.1,24.9,00.0,34.3,27.7,13.2,0000.0,0011.92,0004.64,0002.11
2023-04-29 16:44:00,,0833.3,5.02,0.00,26.1,25.0,00.0,34.3,27.7,13.2,0000.0,0012.20,0004.62,0002.11
2023-04-29 16:45:00,,0833.2,5.00,0.00,26.2,25.0,00.0,34.3,27.7,14.1,0000.0,0012.37,0004.63,0002.11
2023-04-29 16:46:00,,0833.2,5.00,0.00,26.2,25.0,00.0,34.4,27.8,13.7,0000.0,0012.22,0004.57,0002.10
2023-04-29 16:47:00,,0833.2,5.00,0.00,26.2,25.1,00.0,34.4,27.8,13.0,0000.0,0011.89,0004.61,0002.11
2023-04-29 16:48:00,,0833.2,5.00,0.00,26.2,25.1,00.0,34.4,27.8,13.0,0000.0,0011.63,0004.57,0002.09
2023-04-29 16:49:00,,0833.2,5.00,0.00,26.2,25.1,00.0,34.4,27.8,12.9,0000.0,0011.46,0004.54,0002.10
2023-04-29 16:50:00,,0833.2,5.00,0.00,26.3,25.1,00.0,34.4,27.8,13.2,0000.0,0011.36,0004.51,0002.10
2023-04-29 16:51:00,,0833.2,5.00,0.00,26.3,25.1,00.0,34.4,27.9,13.3,0000.0,0011.23,0004.48,0002.10
2023-04-29 16:52:00,,0833.2,5.00,0.00,26.3,25.2,00.0,34.5,27.9,12.5,0000.0,0011.04,0004.41,0002.09
2023-04-29 16:53:00,,0833.2,5.01,0.00,26.3,25.2,00.0,34.5,27.9,12.4,0000.0,0011.41,0004.41,0002.08
2023-04-29 16:54:00,,0833.2,5.00,0.00,26.3,25.2,00.0,34.5,27.9,12.6,0000.0,0012.35,0004.46,0002.10
2023-04-29 16:55:00,,0833.2,5.00,0.00,26.4,25.2,00.0,34.5,28.0,12.3,0000.0,0012.13,0004.43,0002.09
2023-04-29 16:56:00,,0833.2,5.00,0.00,26.4,25.3,00.0,34.6,28.0,12.1,0000.0,0012.09,0004.44,0002.08
2023-04-29 16:57:00,,0833.2,5.00,0.00,26.4,25.3,00.0,34.6,28.0,12.4,0000.0,0012.72,0004.52,0002.08
2023-04-29 16:58:00,,0833.2,5.00,0.00,26.4,25.3,00.0,34.6,28.0,12.7,0000.0,0012.33,0004.46,0002.08
2023-04-29 16:59:00,,0833.2,5.00,0.00,26.4,25.3,00.0,34.6,28.0,12.7,0000.0,0012.44,0004.44,0002.09
